User: anonymous   Login
Location: Lawrence
(38.9720°N, 95.2350°W)
Time: 21:13:56
(UTC-05:00)
Language:

JAS-1B - Orbit

View from above orbital plane
View from above orbital plane
View from above satellite
View from above satellite

Ground track
Ground track

The orbit data is extracted from the following two-line orbital elements,

1 20480U 90013C   15239.76139252 -.00000022  00000-0  15622-4 0  9997
2 20480 099.0573 126.5462 0541033 085.4507 000.0256 12.83407103197133
Epoch (UTC): 27 August 2015 18:16:24
Eccentricity: 0.0541033
inclination: 99.0573°
perigee height: 911 km
apogee height: 1745 km
right ascension of ascending node: 126.5462°
argument of perigee: 85.4507°
revolutions per day: 12.83407103
mean anomaly at epoch: 0.0256°
orbit number at epoch: 19713

The dashed part of the orbit path shows where the satellite is in the earth's shadow,  

DLR